COSMOS 2432 (719)

Last updated on Sat Apr 11 2026 00:03:25 GMT+0000 (Coordinated Universal Time)

1 32276U 07052B 26100.14217593 -.00000017 00000+0 00000+0 0 9992 2 32276 65.6303 318.3510 0009558 337.0038 173.4092 2.13103429143635
UTC large
Height (km)
Speed (km/s)
/
Latitude / Longitude
Inclination (degrees)
Orbital Period (minutes)
Azimuth
Elevation
Range (km)
Doppler Factor

Next 0 passes for location: London (51.5072 / 0.1276)

Sorry there are no passes over London.
COSMOS 2432 (719)